Location: Great Snoring
(52.8667°N, 0.8833°E)
Time: 19:00:11
(UTC+00:00)

Cosmos 2058 Rocket - Pass Details

Date: 19 May 2025
Orbit: 604 x 634 km, 82.5° (Epoch: 23 June)

Event Time Altitude Azimuth Distance (km) Brightness Sun altitude
Rises 20:37:54 0° 182° (S) 2,918 6.1 -5.8°
Reaches altitude 10° 20:40:08 10° 180° (S) 2,013 5.3 -6.1°
Maximum altitude 20:44:34 69° 97° (E) 681 3.1 -6.5°
Drops below altitude 10° 20:49:01 10° 15° (NNE) 2,016 6.2 -7.0°
Sets 20:51:15 0° 13° (NNE) 2,924 7.0 -7.2°
